QPF
0.00 0.00 0.00 0.00 0.00 0.00 0.00 0.00 0.00 0.00 0.00 0.00 0.00 0.00 0.00 0.00 0.00 0.00 0.00 0.00 0.01 0.01 0.01 0.01 0.00 0.00 0.00 0.00 0.00 0.00 0.00 0.00 0.02
0.00 0.00 0.00 0.00 0.00 0.00 0.00 0.00 0.00 0.00 0.00 0.00 0.00 0.00 0.00 0.00 0.00 0.00 0.00 0.00 0.00 0.00 0.00 0.00 0.00 0.00 0.00 0.00 0.00 0.00 0.00 0.00 0.01
0.00 0.00 0.00 0.00 0.00 0.00 0.00 0.00 0.00 0.00 0.00 0.00 0.00 0.00 0.00 0.00 0.00 0.00 0.00 0.00 0.00 0.00 0.00 0.00 0.00 0.00 0.00 0.00 0.00 0.00 0.00 0.00 0.00
0.00 0.00 0.00 0.00 0.00 0.00 0.00 0.00 0.00 0.00 0.00 0.00 0.00 0.00 0.00 0.00 0.00 0.00 0.00 0.00 0.00 0.00 0.00 0.00 0.00 0.00 0.00 0.00 0.00 0.00 0.00 0.00 0.00
0.00 0.00 0.00 0.00 0.00 0.00 0.00 0.00 0.00 0.00 0.00 0.00 0.00 0.00 0.00 0.00 0.00 0.00 0.00 0.00 0.00 0.00 0.00 0.00 0.00 0.00 0.00 0.00 0.00 0.01 0.01 0.00 0.00
0.00 0.00 0.00 0.00 0.00 0.00 0.00 0.00 0.00 0.00 0.00 0.00 0.00 0.00 0.00 0.00 0.00 0.00 0.00 0.00 0.00 0.00 0.00 0.00 0.00 0.00 0.00 0.00 0.00 0.00 0.00 0.00 0.00
0.00 0.00 0.00 0.00 0.00 0.00 0.00 0.00 0.00 0.00 0.00 0.00 0.00 0.00 0.00 0.00 0.00 0.00 0.00 0.00 0.00 0.00 0.00 0.00 0.00 0.01 0.01 0.01 0.01 0.00 0.00 0.00 0.00
0.00 0.00 0.00 0.00 0.00 0.00 0.00 0.00 0.00 0.00 0.00 0.00 0.00 0.00 0.00 0.00 0.00 0.00 0.00 0.00 0.00 0.00 0.00 0.00 0.00 0.00 0.01 0.01 0.01 0.00 0.00 0.00 0.00
0.00 0.00 0.00 0.00 0.00 0.00 0.00 0.00 0.00 0.00 0.00 0.00 0.00 0.00 0.00 0.00 0.00 0.00 0.00 0.00 0.00 0.00 0.00 0.00 0.00 0.00 0.00 0.00 0.00 0.00 0.00 0.00 0.00
0.00 0.00 0.00 0.00 0.00 0.00 0.00 0.00 0.00 0.00 0.00 0.00 0.00 0.00 0.00 0.00 0.00 0.00 0.00 0.00 0.00 0.00 0.00 0.00 0.00 0.00 0.00 0.00 0.00 0.00 0.00 0.00 0.00
0.00 0.00 0.00 0.00 0.00 0.00 0.00 0.00 0.00 0.00 0.00 0.00 0.00 0.00 0.00 0.00 0.00 0.00 0.00 0.00 0.00 0.00 0.00 0.00 0.00 0.00 0.00 0.00 0.00 0.00 0.00 0.00 0.00
0.00 0.00 0.00 0.00 0.00 0.00 0.00 0.00 0.00 0.00 0.00 0.00 0.00 0.00 0.00 0.00 0.00 0.00 0.00 0.00 0.00 0.00 0.00 0.00 0.00 0.00 0.00 0.00 0.00 0.00 0.00 0.00 0.00
0.00 0.00 0.00 0.00 0.00 0.00 0.00 0.00 0.00 0.00 0.00 0.00 0.00 0.00 0.00 0.00 0.00 0.00 0.00 0.00 0.00 0.00 0.00 0.00 0.00 0.00 0.00 0.00 0.00 0.00 0.00 0.00 0.00
0.00 0.00 0.00 0.00 0.00 0.00 0.00 0.00 0.00 0.00 0.00 0.00 0.00 0.00 0.00 0.00 0.00 0.00 0.00 0.00 0.00 0.00 0.00 0.00 0.00 0.00 0.00 0.00 0.00 0.00 0.00 0.00 0.00
0.00 0.00 0.00 0.00 0.00 0.00 0.00 0.00 0.00 0.00 0.00 0.00 0.00 0.00 0.00 0.00 0.00 0.00 0.00 0.00 0.00 0.00 0.00 0.00 0.00 0.00 0.00 0.00 0.00 0.00 0.00 0.00 0.00
0.00 0.00 0.00 0.00 0.00 0.00 0.00 0.00 0.00 0.00 0.00 0.00 0.00 0.00 0.00 0.00 0.00 0.00 0.00 0.00 0.00 0.00 0.00 0.00 0.00 0.00 0.00 0.00 0.00 0.00 0.00 0.00 0.00
0.00 0.00 0.00 0.00 0.00 0.00 0.00 0.00 0.00 0.00 0.00 0.00 0.00 0.00 0.00 0.00 0.00 0.00 0.00 0.00 0.00 0.00 0.00 0.00 0.00 0.00 0.00 0.00 0.00 0.00 0.00 0.00 0.00
0.00 0.00 0.00 0.00 0.00 0.00 0.00 0.00 0.00 0.00 0.00 0.00 0.00 0.00 0.00 0.00 0.00 0.00 0.00 0.00 0.00 0.00 0.00 0.00 0.00 0.00 0.00 0.00 0.00 0.00 0.00 0.00 0.00
0.00 0.00 0.00 0.00 0.00 0.00 0.00 0.00 0.00 0.00 0.00 0.00 0.00 0.00 0.00 0.00 0.00 0.00 0.00 0.00 0.00 0.00 0.00 0.00 0.00 0.00 0.00 0.00 0.00 0.00 0.00 0.00 0.00
0.00 0.00 0.00 0.00 0.00 0.00 0.00 0.00 0.00 0.00 0.00 0.00 0.00 0.00 0.00 0.00 0.00 0.00 0.00 0.00 0.00 0.00 0.00 0.00 0.00 0.00 0.00 0.00 0.00 0.00 0.00 0.00 0.00
MSLP
1018.13 1018.21 1018.25 1018.32 1018.35 1018.34 1018.32 1018.34 1018.31 1018.29 1018.23 1018.13 1018.03 1017.83 1017.63 1017.40 1017.14 1017.00 1017.22 1017.35 1017.33 1017.37 1017.40 1017.36 1017.29 1017.25 1017.19 1017.16 1017.12 1016.97 1016.81 1016.71 1016.68
1018.45 1018.54 1018.58 1018.63 1018.68 1018.66 1018.61 1018.60 1018.59 1018.54 1018.48 1018.42 1018.32 1018.15 1017.93 1017.70 1017.48 1017.51 1017.63 1017.69 1017.53 1017.55 1017.67 1017.69 1017.62 1017.53 1017.45 1017.40 1017.29 1017.20 1017.00 1016.85 1016.76
1018.71 1018.83 1018.88 1018.91 1018.94 1018.95 1018.87 1018.86 1018.85 1018.81 1018.73 1018.64 1018.53 1018.33 1018.11 1018.03 1017.66 1018.07 1018.05 1017.91 1017.77 1017.81 1017.93 1017.92 1017.84 1017.82 1017.79 1017.74 1017.67 1017.58 1017.40 1017.26 1017.12
1019.04 1019.15 1019.15 1019.18 1019.20 1019.22 1019.13 1019.10 1019.10 1019.02 1018.91 1018.79 1018.65 1018.45 1018.26 1018.33 1017.91 1018.23 1018.35 1018.16 1017.91 1018.01 1018.14 1018.16 1018.12 1018.06 1018.00 1017.96 1017.87 1017.71 1017.63 1017.60 1017.54
1019.17 1019.48 1019.51 1019.46 1019.46 1019.43 1019.37 1019.27 1019.22 1019.21 1019.12 1018.88 1018.70 1018.57 1018.34 1018.39 1018.45 1018.63 1018.58 1018.44 1018.21 1018.25 1018.33 1018.37 1018.32 1018.20 1018.11 1018.04 1017.99 1017.90 1017.86 1017.88 1017.95
1019.62 1019.69 1019.75 1019.71 1019.64 1019.56 1019.45 1019.27 1019.14 1019.13 1019.13 1018.98 1018.76 1018.66 1018.50 1018.40 1018.79 1018.91 1018.82 1018.73 1018.53 1018.43 1018.49 1018.41 1018.40 1018.32 1018.12 1017.94 1018.05 1018.04 1018.09 1018.13 1018.08
1019.62 1019.77 1019.78 1019.72 1019.66 1019.58 1019.42 1019.29 1019.14 1019.07 1019.14 1019.08 1018.89 1018.92 1018.78 1018.67 1019.06 1019.13 1019.08 1018.98 1018.76 1018.62 1018.60 1018.56 1018.48 1018.35 1018.27 1018.24 1018.21 1018.28 1018.34 1018.37 1018.37
1019.79 1019.88 1019.85 1019.81 1019.58 1019.58 1019.41 1019.40 1019.29 1019.27 1019.26 1019.21 1019.08 1018.99 1019.00 1018.99 1019.16 1019.32 1019.25 1019.27 1019.06 1018.89 1018.73 1018.73 1018.63 1018.51 1018.51 1018.54 1018.59 1018.63 1018.61 1018.58 1018.55
1019.63 1019.78 1019.74 1019.79 1019.74 1019.77 1019.72 1019.70 1019.52 1019.46 1019.31 1019.28 1019.20 1019.15 1019.19 1019.14 1019.35 1019.40 1019.38 1019.46 1019.40 1019.22 1019.01 1018.95 1018.89 1018.90 1018.78 1018.64 1018.69 1018.61 1018.58 1018.55 1018.60
1019.79 1019.86 1019.89 1019.96 1019.92 1020.01 1020.02 1019.95 1019.84 1019.73 1019.52 1019.37 1019.28 1019.29 1019.26 1019.27 1019.38 1019.62 1019.63 1019.64 1019.68 1019.56 1019.43 1019.33 1019.28 1019.19 1019.03 1018.93 1018.81 1018.80 1018.83 1018.76 1018.69
1019.84 1019.99 1020.03 1020.12 1020.09 1020.14 1020.07 1020.03 1020.01 1019.92 1019.71 1019.59 1019.42 1019.43 1019.47 1019.41 1019.39 1019.79 1019.76 1019.77 1019.79 1019.77 1019.73 1019.68 1019.63 1019.52 1019.28 1019.12 1019.05 1019.02 1018.94 1018.87 1018.73
1019.86 1020.04 1020.25 1020.26 1020.14 1020.12 1020.07 1020.05 1020.05 1020.06 1019.82 1019.92 1019.64 1019.58 1019.54 1019.57 1019.47 1019.49 1019.86 1019.90 1019.97 1019.92 1020.00 1020.01 1019.93 1019.80 1019.59 1019.33 1019.14 1018.98 1018.85 1018.75 1018.70
1019.76 1020.02 1020.33 1020.29 1020.25 1020.23 1020.28 1020.33 1020.39 1020.35 1020.21 1020.11 1019.99 1019.88 1019.78 1019.68 1019.62 1019.62 1019.72 1020.02 1020.18 1020.12 1020.11 1020.13 1020.12 1020.06 1019.86 1019.56 1019.27 1019.10 1019.08 1018.89 1018.60
1019.73 1019.99 1020.21 1020.28 1020.37 1020.40 1020.43 1020.52 1020.55 1020.61 1020.57 1020.34 1020.11 1020.11 1020.15 1019.94 1019.71 1019.82 1019.94 1020.04 1020.17 1020.30 1020.30 1020.24 1020.21 1020.13 1019.96 1019.75 1019.49 1019.24 1019.10 1018.83 1018.59
1019.66 1019.88 1020.13 1020.29 1020.48 1020.72 1020.73 1020.78 1020.72 1020.75 1020.80 1020.50 1020.27 1020.00 1020.06 1020.01 1020.09 1020.06 1020.06 1020.19 1020.37 1020.45 1020.47 1020.46 1020.38 1020.17 1019.89 1019.74 1019.54 1019.55 1019.12 1018.76 1018.41
1019.61 1019.87 1020.06 1020.29 1020.66 1020.83 1020.95 1020.99 1020.99 1021.07 1020.90 1020.76 1020.46 1020.33 1020.12 1020.20 1020.32 1020.31 1020.48 1020.53 1020.56 1020.52 1020.44 1020.51 1020.41 1020.31 1020.02 1019.93 1019.79 1019.65 1019.30 1018.84 1018.36
1019.56 1019.84 1020.16 1020.41 1020.73 1020.88 1021.12 1021.27 1021.39 1021.34 1021.22 1021.52 1021.42 1021.13 1021.02 1020.77 1020.61 1020.51 1020.66 1020.65 1020.54 1020.51 1020.42 1020.39 1020.31 1020.30 1020.23 1020.07 1019.77 1019.86 1019.67 1019.24 1018.68
1019.59 1019.83 1020.24 1020.55 1020.74 1021.04 1021.23 1021.39 1021.55 1021.75 1021.67 1021.51 1021.82 1021.87 1022.14 1021.75 1021.03 1020.86 1020.83 1020.82 1020.68 1020.46 1020.30 1020.19 1020.13 1020.06 1020.05 1020.06 1020.08 1019.99 1019.83 1019.37 1018.84
1019.64 1019.88 1020.25 1020.51 1020.75 1021.08 1021.23 1021.38 1021.59 1021.73 1022.00 1021.95 1021.78 1021.99 1022.33 1022.53 1022.44 1021.44 1021.22 1021.01 1020.94 1020.77 1020.48 1020.16 1019.98 1019.87 1019.83 1019.79 1019.92 1019.84 1019.77 1019.35 1018.86
1019.69 1019.95 1020.28 1020.57 1020.84 1021.06 1021.32 1021.48 1021.72 1021.76 1022.06 1022.25 1022.34 1022.35 1022.36 1022.55 1022.95 1022.76 1021.98 1021.48 1021.03 1020.85 1020.53 1020.20 1019.96 1019.75 1019.68 1019.70 1019.75 1019.72 1019.70 1019.35 1018.88
Thickness
5713 5712 5711 5710 5709 5709 5708 5706 5705 5704 5704 5703 5703 5703 5703 5704 5704 5703 5699 5696 5694 5692 5690 5689 5688 5687 5685 5682 5680 5680 5679 5678 5676
5709 5708 5708 5706 5705 5704 5704 5703 5702 5701 5700 5699 5698 5698 5699 5699 5699 5697 5694 5691 5689 5688 5685 5682 5680 5679 5677 5675 5673 5672 5672 5671 5670
5706 5704 5703 5702 5701 5700 5700 5698 5697 5696 5695 5695 5694 5694 5695 5693 5694 5689 5687 5685 5684 5681 5678 5676 5673 5671 5669 5666 5665 5663 5663 5662 5661
5701 5699 5699 5698 5696 5695 5695 5694 5693 5692 5692 5691 5691 5691 5691 5688 5688 5684 5681 5679 5678 5675 5671 5668 5667 5665 5663 5661 5658 5656 5655 5653 5652
5697 5694 5693 5693 5692 5691 5690 5690 5689 5688 5687 5687 5687 5687 5686 5684 5680 5678 5675 5673 5672 5668 5666 5663 5661 5660 5658 5656 5653 5650 5647 5644 5642
5692 5690 5689 5688 5687 5687 5686 5686 5686 5685 5684 5683 5683 5682 5681 5680 5674 5671 5668 5666 5665 5663 5660 5658 5656 5655 5654 5652 5648 5645 5641 5637 5635
5687 5686 5685 5684 5684 5683 5683 5683 5682 5681 5679 5678 5678 5676 5675 5674 5668 5665 5662 5660 5659 5658 5655 5653 5651 5650 5648 5646 5643 5639 5635 5632 5628
5684 5682 5681 5680 5679 5679 5678 5678 5677 5676 5674 5673 5673 5671 5668 5667 5663 5658 5656 5653 5653 5652 5650 5648 5646 5644 5641 5638 5635 5631 5628 5626 5623
5680 5678 5677 5675 5674 5673 5673 5672 5671 5670 5669 5668 5666 5665 5662 5660 5657 5652 5650 5647 5645 5644 5643 5641 5639 5636 5634 5632 5629 5626 5623 5621 5618
5674 5673 5671 5670 5668 5667 5666 5665 5664 5663 5663 5662 5661 5658 5656 5653 5651 5646 5642 5640 5637 5636 5634 5632 5630 5628 5626 5624 5622 5619 5616 5614 5611
5669 5667 5665 5664 5662 5660 5660 5658 5657 5656 5656 5655 5654 5651 5648 5645 5643 5639 5636 5632 5630 5627 5625 5623 5621 5619 5618 5616 5614 5611 5609 5607 5605
5663 5661 5658 5657 5656 5655 5654 5653 5651 5650 5649 5647 5646 5644 5641 5638 5635 5633 5629 5625 5621 5619 5615 5612 5610 5609 5608 5607 5605 5603 5602 5600 5597
5658 5655 5652 5650 5649 5648 5647 5646 5643 5641 5640 5638 5637 5635 5633 5629 5627 5624 5622 5618 5614 5610 5607 5604 5601 5598 5596 5595 5594 5592 5589 5588 5588
5653 5650 5647 5644 5643 5641 5640 5638 5636 5633 5630 5630 5630 5627 5623 5620 5619 5616 5612 5608 5604 5601 5597 5593 5590 5586 5583 5581 5580 5579 5578 5578 5577
5648 5645 5642 5639 5636 5632 5631 5629 5628 5624 5621 5622 5621 5619 5616 5612 5608 5605 5601 5597 5592 5588 5585 5581 5578 5574 5571 5569 5567 5565 5565 5564 5564
5642 5639 5636 5632 5628 5625 5622 5619 5617 5614 5613 5611 5610 5608 5607 5603 5598 5595 5590 5584 5580 5576 5572 5567 5564 5561 5558 5555 5551 5548 5548 5549 5549
5636 5632 5628 5624 5621 5617 5613 5609 5606 5604 5601 5595 5592 5591 5591 5589 5587 5583 5579 5573 5568 5564 5559 5555 5550 5547 5543 5540 5536 5531 5528 5527 5528
5629 5625 5620 5616 5613 5608 5603 5599 5596 5591 5588 5586 5580 5573 5567 5566 5572 5569 5564 5559 5555 5551 5546 5541 5537 5532 5527 5522 5517 5511 5507 5505 5505
5621 5617 5613 5608 5604 5599 5595 5591 5587 5582 5576 5573 5572 5565 5558 5548 5544 5550 5547 5544 5538 5534 5531 5526 5520 5515 5509 5505 5498 5492 5486 5483 5481
5614 5610 5604 5600 5595 5590 5586 5581 5575 5572 5566 5560 5555 5550 5545 5539 5530 5525 5525 5524 5520 5516 5512 5508 5502 5495 5490 5483 5477 5469 5462 5458 5455